Location: Cella
(44.7333°N, 10.5667°E)
Time: 18:55:52
(UTC+00:00)

COSMOS 1867 COOLANT - Pass Details

Date: 23 September 2021
Orbit: 770 x 802 km, 65.0° (Epoch: 21 October)

Event Time Altitude Azimuth Distance (km) Brightness Sun altitude
Rises 20:40:28 0° 327° (NNW) 3,320 ? -34.7°
Reaches altitude 10° 20:42:57 10° 331° (NNW) 2,386 ? -35.1°
Enters shadow 20:45:52 31° 344° (NNW) 1,379 ? -35.4°
